Theta_e
326 326 326 326 327 330 334 337 338 337 338 340 341 347 346 346 342 344 347 346 348 348 351 351 350 350 351 345 344 343 346 346 347 347 340 338 338 345 345 344 344 343 345 347
330 330 329 329 329 330 333 335 337 337 336 337 341 346 347 346 346 346 348 348 347 348 348 350 351 350 348 346 345 344 345 346 346 346 345 337 337 345 344 343 344 344 347 347
331 332 332 330 329 331 332 333 334 336 334 333 337 347 345 342 344 343 346 341 346 346 347 348 347 348 347 347 346 345 345 345 345 346 346 345 343 345 345 343 341 344 344 344
332 332 332 332 330 330 332 332 334 336 335 333 335 340 347 344 346 344 344 341 342 343 347 348 346 347 348 347 346 346 346 345 345 347 347 346 338 344 344 344 343 341 343 344
328 334 333 332 333 331 332 331 332 335 335 333 335 338 344 348 349 345 344 344 343 344 347 347 347 347 347 348 347 347 347 347 346 347 345 343 340 341 344 347 345 343 343 346
326 331 333 332 332 332 332 331 329 331 333 334 332 335 338 347 350 347 342 342 342 346 348 347 348 347 348 348 348 347 347 347 347 346 346 343 339 341 344 343 346 344 345 345
329 329 332 333 332 331 330 328 328 329 331 332 329 330 331 338 341 344 344 343 347 349 348 347 348 347 347 347 348 347 347 347 347 346 345 345 341 343 339 341 343 343 346 346
328 332 330 333 330 329 330 327 324 326 327 328 326 330 331 333 336 341 344 347 349 349 348 347 347 347 346 347 347 348 347 346 346 346 343 342 342 340 342 338 343 345 346 347
327 329 332 331 331 327 326 326 324 324 327 325 325 327 328 329 331 335 338 341 349 349 349 348 347 347 346 346 346 348 348 347 346 345 340 338 338 340 336 336 340 345 347 350
323 324 329 332 333 328 325 324 324 324 325 327 327 327 328 328 329 331 332 338 343 348 350 350 348 347 347 346 345 347 347 346 345 345 344 338 331 332 334 334 336 342 345 348
320 322 324 327 332 332 325 325 324 323 323 325 329 329 328 329 329 330 331 337 340 348 350 350 349 348 348 347 346 346 347 347 346 346 345 341 333 333 334 337 333 336 342 350
317 322 324 324 326 330 327 326 325 325 323 324 323 327 332 331 330 331 332 335 340 345 350 350 350 349 349 347 346 346 346 346 345 344 344 345 343 339 337 337 335 334 335 341
317 322 326 324 324 325 329 326 326 323 324 325 325 326 331 329 331 332 333 335 337 343 350 350 351 350 349 348 347 346 345 345 344 344 345 346 347 345 340 335 336 338 337 336
317 320 322 327 325 326 328 328 326 324 326 325 327 329 331 331 332 332 334 335 336 336 348 350 351 351 350 349 348 347 346 345 345 344 345 346 346 345 344 338 337 339 340 341
313 317 323 328 328 329 330 329 328 326 325 328 326 332 333 333 334 338 335 335 338 339 345 349 350 351 351 350 349 348 348 347 347 347 347 345 345 345 343 342 341 339 339 341
311 317 321 331 330 330 332 330 329 328 327 327 327 327 331 334 338 336 337 339 342 340 341 347 349 351 351 351 350 350 349 348 348 349 349 350 349 348 347 344 343 341 337 339
310 314 318 330 331 332 334 332 329 328 328 327 328 328 334 335 336 335 336 333 336 337 337 339 342 349 352 352 352 351 350 350 350 350 351 351 353 354 354 354 355 352 346 344
311 312 318 327 329 336 332 333 333 329 330 328 327 334 333 334 337 333 332 334 333 333 333 333 336 337 344 353 352 351 351 352 352 352 353 354 354 355 355 356 357 357 355 353
311 314 318 325 330 332 334 331 331 333 334 334 335 334 334 335 340 341 339 339 341 340 340 341 340 339 339 337 350 354 352 352 353 353 355 355 356 356 357 357 357 357 357 357
312 315 318 322 331 336 329 325 325 331 338 329 336 339 334 339 343 341 340 341 341 341 341 340 341 339 338 337 339 342 348 349 353 353 353 355 355 355 356 356 357 358 357 357
314 315 318 320 324 329 320 321 330 336 336 325 326 328 331 331 333 330 334 336 340 341 342 342 340 344 346 341 337 336 350 356 351 348 350 351 351 352 353 356 358 359 359 359
317 318 318 318 324 328 320 321 324 329 324 323 322 323 324 323 324 325 327 332 333 335 338 342 344 344 345 343 340 334 334 339 345 352 351 346 345 345 348 352 357 360 361 360
315 313 313 316 319 319 319 319 320 319 320 319 319 319 320 321 321 325 326 325 327 329 335 335 346 351 347 343 350 345 344 339 336 334 345 350 350 348 348 349 355 361 362 362
311 312 311 313 314 315 315 317 316 317 317 317 318 318 318 319 319 323 324 322 322 323 327 331 342 352 352 357 358 350 349 346 345 344 342 342 351 353 353 353 355 358 363 364
311 312 310 312 313 312 314 314 314 315 315 317 316 316 317 318 318 320 321 321 320 320 322 325 328 340 349 349 358 361 359 355 354 348 344 342 348 356 356 358 359 361 363 363
309 309 310 310 309 309 310 310 312 312 312 315 316 318 317 317 317 319 319 319 319 320 320 321 322 326 343 344 343 355 356 356 355 352 354 361 362 358 358 358 359 362 364 365
Wind_Speed
26 11 23 24 20 13 11 17 14 15 10 12 14 20 23 26 33 35 34 13 30 35 49 47 47 41 42 43 41 38 33 29 26 23 25 28 28 24 22 19 14 14 12 9
14 25 19 15 16 19 18 21 20 12 17 14 12 16 24 25 34 28 24 10 21 38 36 44 44 47 47 45 42 42 38 33 30 27 22 25 24 23 21 22 17 14 14 13
24 13 20 20 21 22 22 19 19 13 16 16 9 21 20 15 27 34 38 33 38 31 44 43 45 46 48 46 44 43 40 38 35 31 26 21 22 19 21 17 22 19 19 17
26 20 25 24 23 22 19 19 21 21 14 10 12 8 14 16 18 20 37 40 60 47 44 46 49 45 47 48 45 42 41 39 37 34 31 28 30 30 26 21 17 20 21 17
26 26 24 24 25 21 14 17 20 21 15 8 13 10 11 22 15 20 25 39 45 54 44 50 53 51 48 47 46 43 40 39 40 38 35 30 29 28 26 22 21 18 17 15
25 20 21 25 20 20 17 12 15 17 13 13 17 7 13 16 24 25 30 33 42 56 48 51 52 51 49 46 47 45 42 41 41 42 39 36 33 31 28 28 24 21 19 18
20 30 24 22 20 22 13 14 9 11 12 14 9 6 8 9 21 32 31 40 51 50 53 51 51 51 50 48 48 48 46 44 42 41 43 39 35 31 30 28 24 25 23 23
21 20 31 23 22 17 22 21 6 9 7 8 9 10 8 9 6 27 43 52 54 53 53 54 55 56 54 51 49 50 49 47 44 41 41 41 40 35 31 28 29 24 26 25
17 30 14 29 22 20 16 18 13 3 5 3 5 10 11 16 13 8 24 33 50 52 53 54 56 56 57 54 52 52 50 47 45 43 41 41 42 41 37 32 31 29 28 25
27 12 19 22 25 20 15 9 12 9 10 10 8 14 16 13 18 9 11 22 41 55 54 53 56 55 56 54 54 53 51 48 45 43 42 41 41 42 42 38 33 34 29 28
17 14 30 15 24 28 9 12 14 4 5 7 4 10 15 21 19 16 14 23 41 50 53 53 54 56 54 53 53 54 53 50 46 43 41 41 40 41 43 43 37 35 34 30
21 8 18 27 13 25 16 14 16 12 14 5 5 10 6 8 25 19 16 25 38 41 54 54 53 56 55 54 53 53 53 53 49 44 42 41 41 40 40 42 40 36 37 36
13 6 6 20 16 21 25 25 17 9 6 12 9 6 3 13 20 24 14 27 27 36 51 52 51 54 53 54 54 52 51 52 50 47 44 42 41 41 41 40 39 39 37 37
29 12 15 11 15 7 19 23 21 12 12 10 11 5 9 9 9 9 17 22 32 31 47 48 50 53 53 54 53 53 51 49 47 48 47 45 43 42 41 40 41 41 41 40
12 9 14 15 15 11 15 28 23 21 15 16 10 8 6 2 8 5 17 19 25 29 43 45 48 50 53 53 52 52 50 48 46 44 44 44 42 41 40 40 41 41 42 43
16 8 18 7 11 11 16 21 25 22 20 13 14 8 8 8 20 18 21 17 15 23 22 44 43 50 54 55 53 52 51 49 47 47 43 39 40 41 40 39 39 39 39 41
15 10 12 5 4 3 6 16 21 19 17 18 12 8 7 6 12 12 21 27 28 24 23 21 19 39 48 46 52 50 49 47 48 47 45 43 41 39 39 38 39 41 42 41
20 18 4 4 6 1 7 6 9 18 12 14 12 13 13 10 16 31 28 25 24 22 20 21 16 13 16 35 47 50 47 47 46 46 48 47 46 44 41 40 40 40 40 42
16 9 4 4 1 4 6 10 11 2 7 23 13 9 10 27 36 28 25 27 27 23 20 19 20 16 14 12 19 37 46 50 49 46 46 47 47 46 46 46 45 43 42 42
14 6 2 4 4 3 7 26 30 6 10 21 21 17 21 22 13 4 28 29 27 24 20 15 14 12 8 9 5 17 33 37 45 47 46 44 43 45 46 46 46 45 45 44
7 4 4 6 4 5 28 29 21 6 4 19 26 26 30 18 13 25 29 29 26 20 16 11 6 11 13 12 6 5 16 35 37 36 37 38 40 43 44 43 44 46 46 45
4 3 3 2 4 5 22 15 15 4 19 22 26 29 29 30 29 27 28 28 27 27 18 12 8 8 7 7 9 9 6 10 13 25 33 34 32 33 37 42 43 44 45 45
5 5 2 11 4 2 11 18 15 24 18 22 23 24 24 24 24 21 24 25 24 24 22 14 11 13 13 10 12 10 12 15 15 16 22 31 35 33 33 33 39 41 42 44
11 13 5 8 11 17 22 19 29 34 25 20 18 18 19 19 18 16 17 20 20 18 21 16 14 14 15 16 14 13 13 15 17 20 21 25 27 31 30 30 33 35 40 43
5 12 18 12 11 25 21 24 31 34 35 30 19 16 16 14 13 13 13 15 17 14 14 16 17 16 17 16 13 11 13 19 21 20 21 25 28 30 30 30 32 34 37 39
12 12 8 9 33 22 34 39 34 33 35 29 29 17 10 11 14 11 11 15 16 17 15 15 17 18 17 18 19 19 20 20 21 22 19 21 25 28 31 31 32 32 30 33
Wind_Direction
213 210 221 215 226 230 234 246 231 244 233 229 208 139 169 170 158 167 189 224 206 199 195 195 193 191 196 189 192 195 196 201 207 209 205 201 197 195 197 199 212 231 235 242
214 227 222 210 220 233 230 238 244 234 242 229 186 162 168 168 177 151 129 266 262 195 200 189 189 188 191 189 191 194 197 206 210 217 213 210 197 200 209 204 206 231 236 241
209 220 221 210 219 223 231 233 243 243 232 239 200 155 162 179 130 131 143 187 239 227 196 195 189 190 192 192 196 197 202 208 214 217 217 211 205 206 214 214 208 218 238 246
226 224 200 225 217 222 222 234 247 251 257 236 191 208 191 174 169 171 153 186 217 216 200 196 192 194 195 199 201 202 205 210 212 213 214 213 205 202 209 212 215 215 229 242
217 206 227 213 223 219 228 221 240 250 260 273 272 199 191 171 190 182 192 204 208 205 203 191 192 195 199 199 201 205 206 209 211 214 219 218 212 209 207 216 222 231 229 224
229 225 221 227 215 228 218 225 242 246 251 256 251 211 216 171 188 201 204 202 204 198 199 191 192 192 195 201 203 206 207 211 213 213 219 219 218 214 212 213 217 226 233 233
233 223 224 226 217 208 209 211 227 232 228 237 244 250 212 188 186 192 200 205 201 199 187 186 187 189 194 198 204 208 209 211 216 218 217 220 221 221 217 215 215 219 229 231
228 227 216 213 224 207 206 212 194 201 224 235 253 256 252 246 229 209 185 189 191 185 183 183 187 190 193 198 202 207 211 214 215 221 222 219 223 222 222 219 215 218 226 232
215 242 195 226 215 214 205 222 212 217 230 151 219 268 277 265 270 187 201 176 180 180 182 184 187 191 195 196 202 207 214 216 218 220 222 219 219 224 226 221 217 216 220 230
250 280 222 215 231 232 189 160 209 211 202 225 224 224 234 236 244 225 209 190 175 181 182 182 186 189 197 199 203 206 216 219 221 220 221 223 220 222 228 228 221 218 219 221
310 240 254 241 210 220 197 191 203 167 186 192 220 236 232 221 221 217 209 195 185 179 179 181 184 190 200 201 202 206 211 218 222 224 224 225 225 223 225 229 228 224 223 220
287 289 235 241 258 213 212 213 198 204 225 226 206 250 317 227 208 205 205 200 188 173 178 180 182 189 196 198 201 207 211 216 224 226 227 227 229 230 226 226 230 228 225 224
327 323 262 244 252 267 209 204 213 175 148 225 232 271 280 314 191 195 181 195 182 167 175 178 180 186 192 198 202 207 212 218 222 226 228 230 230 232 233 230 229 232 230 228
313 251 245 252 232 216 214 199 207 201 203 218 236 220 297 357 76 152 170 167 199 186 168 177 180 186 193 200 202 207 211 217 222 225 229 231 233 233 235 237 235 233 236 235
319 267 258 272 270 277 292 200 197 211 210 202 232 193 201 122 63 95 168 172 175 167 172 173 182 185 192 199 204 208 212 213 218 224 228 232 234 235 236 238 240 240 238 240
320 291 321 277 264 265 278 220 196 202 213 225 214 219 198 169 104 79 91 120 148 176 174 184 186 186 189 198 206 209 210 214 216 219 226 232 235 235 236 238 239 241 243 241
297 319 330 306 279 323 300 245 208 202 198 213 227 200 165 111 122 117 99 95 90 101 108 115 124 190 192 192 202 206 211 215 215 220 224 228 232 235 238 240 241 242 242 244
271 289 278 282 54 179 250 331 305 196 199 207 226 166 156 148 125 111 109 98 81 77 76 78 95 118 143 203 209 211 212 215 217 220 226 227 230 234 237 239 242 243 244 244
253 267 291 310 173 331 315 357 334 96 70 10 338 148 150 110 69 38 75 88 86 83 75 74 74 85 89 177 188 212 213 216 218 222 227 230 231 234 237 239 242 245 245 246
251 256 271 339 316 167 17 344 326 295 47 8 18 34 121 91 83 27 62 67 67 70 69 65 51 52 75 48 118 212 213 218 220 224 228 228 234 238 239 242 245 246 247 250
206 299 289 283 290 354 3 357 25 83 42 21 23 35 53 69 61 51 56 59 58 56 62 72 75 43 33 358 353 61 204 217 220 223 226 230 236 240 243 245 245 245 246 248
130 175 215 291 340 2 346 3 56 56 57 42 29 31 44 49 43 41 42 47 45 44 44 44 33 359 351 343 340 310 264 202 221 232 233 235 235 237 242 244 244 244 244 246
26 70 241 2 5 38 337 321 23 26 33 30 25 26 29 33 31 27 30 31 36 41 29 32 24 1 348 340 342 302 288 277 265 247 238 245 244 242 239 242 242 240 242 244
340 353 335 335 333 348 318 356 0 360 348 354 3 9 6 9 11 23 22 16 17 22 22 17 17 10 12 0 342 303 295 282 273 265 253 246 246 243 239 238 241 240 240 241
310 359 339 303 322 347 319 319 331 335 335 342 317 324 327 331 343 359 14 12 4 355 358 4 357 347 344 338 328 311 286 279 287 279 267 250 243 241 238 230 230 235 238 241
6 337 315 280 303 288 280 291 300 314 310 317 327 322 320 334 336 339 349 342 341 343 339 343 335 328 324 322 319 305 302 289 279 278 270 245 240 236 234 234 229 226 233 237